FENGYUN 1C DEB

Satellite information

Favourite Embed

Satellite Type and Status

DEBRISIN ORBIT

Key statistics

Satellite FENGYUN 1C DEB at a glance.

Uptime

9495

Days in orbit

Revolutions

≈ 15.0

Per day

Orbit

SSO

Sun Synchronous Orbit

Inclination

98.2

Latest

Satellite identification and parameters

Extended collection of information and parameters for FENGYUN 1C DEB.

Object identification

Identified? True

Debris? True

Object name: FENGYUN 1C DEB

International designator: 1999-025MU

Object number (NORAD): 30019

Object ID (CCSDS): 30019

Country: PEOPLES REPUBLIC OF CHINA (PRC)

Current information (Y/N): Y

RCS size: SMALL

Orbital parameters

Period: 96.29 minutes

Inclination: 98.1726 deg

SMA: 6959.021 km

Apoapsis: 626.437 km

Periapsis: 535.336 km

RAAN: 93.9204 deg

Eccentricy: 0.0065455

Argument of periapsis: 359.2881 deg

Mean anomaly: 0.8235 deg

Mean motion: 14.95479684 rev/day

Mean motion (dot): 0.00058369 rev/day2

B* drag term: 0.0050206 1/REarth

Two-line elements (TLE)

Creation date: May 8, 2025, 3:01 a.m.

Reference frame: TEME

Reference center: EARTH

Epoch: May 7, 2025, 8:34 p.m. UTC

TLE line 0: 0 FENGYUN 1C DEB

TLE line 1: 1 30019U 99025MU 25127.85736582 .00058369 00000-0 50206-2 0 9995

TLE line 2: 2 30019 98.1726 93.9204 0065455 359.2881 0.8235 14.95479684951220

Live tracking on map

Real-time ground track for satellite FENGYUN 1C DEB.

In-orbit conjunctions

A list of the most updated potential collisions computed for object FENGYUN 1C DEB.

Target Orbit TCA Probability of collision Miss distance Type
COSMOS 192 LEO 2024-12-19 03:34:54 0.0007206013 304.0 (m) PAYLOAD
SL-8 DEB * LEO 2024-06-12 17:33:51 0.0001274435 241.0 (m) DEBRIS

Associated space launch

Chinese polar orbiting meteorological satellite

FENGYUN 1C DEB was lifted into orbit during the mission ‘Long March 4B | Feng Yun 1C’, on board a Long March 4B space rocket.

The launch took place on May 10, 1999, 1:33 a.m. from Launch Complex 7.

For more information about the launch, click the button.

Launch to space Long March 4B | Feng Yun 1C
Long March 4B | Feng Yun 1C

Agency: N/A

Status: Launch Successful

Launch date: May 10, 1999, 1:33 a.m. UTC

Rocket: Long March 4B

Launch pad: Launch Complex 7

Location: Taiyuan Satellite Launch Center, People's Republic of China

...

Latest news about this satellite

There are no fresh news available about this satellite. Check back as we update our databases every day.


Newsletter sign-up

Weekly statistics, charts and insights to help you stay on top of the space industry.